Location: Sevilla
(37.3933°N, 5.9839°W)
Time: 03:40:35
(UTC+02:00)

Tiros 1 despin weight - Pass Details

Date: 04 July 2024
Orbit: 576 x 620 km, 48.2° (Epoch: 22 July)

Event Time Altitude Azimuth Distance (km) Brightness Sun altitude
Rises 16:58:39 0° 294° (WNW) 2,893 ? 54.7°
Reaches altitude 10° 17:01:15 10° 282° (WNW) 1,984 ? 54.2°
Maximum altitude 17:05:02 26° 226° (SW) 1,227 ? 53.5°
Drops below altitude 10° 17:08:47 10° 170° (S) 1,967 ? 52.7°
Sets 17:11:21 0° 157° (SSE) 2,863 ? 52.2°
